Hourly Weather Klarewo

Today, 29 July, Thursday

Time Temperature Precipitation Wind Pressure Humidity
00:00 +19°C° 0.8 mm 2 mps 745 mmHg 95%
01:00 +19°C° 0 mm 2 mps 744 mmHg 95%
02:00 +19°C° 1.2 mm 2 mps 744 mmHg 96%
03:00 +19°C° 1.2 mm 2 mps 744 mmHg 96%
04:00 +20°C° 1.2 mm 1 mps 744 mmHg 97%
05:00 +20°C° 0.4 mm 2 mps 744 mmHg 94%
06:00 +20°C° 0.4 mm 2 mps 744 mmHg 91%
07:00 +21°C° 0 mm 3 mps 744 mmHg 88%
08:00 +22°C° 0.1 mm 3 mps 744 mmHg 78%
09:00 +25°C° 0.1 mm 4 mps 744 mmHg 69%
10:00 +26°C° 0.1 mm 4 mps 744 mmHg 60%
11:00 +27°C° 0 mm 4 mps 744 mmHg 56%
12:00 +27°C° 0 mm 5 mps 744 mmHg 51%
13:00 +28°C° 0 mm 5 mps 744 mmHg 47%
14:00 +27°C° 0 mm 5 mps 744 mmHg 51%
15:00 +26°C° 0 mm 4 mps 744 mmHg 55%
16:00 +25°C° 0 mm 4 mps 744 mmHg 59%
17:00 +23°C° 0 mm 4 mps 744 mmHg 63%
18:00 +22°C° 0 mm 3 mps 744 mmHg 67%
19:00 +21°C° 0 mm 3 mps 744 mmHg 71%
20:00 +20°C° 0 mm 3 mps 744 mmHg 73%
21:00 +19°C° 0 mm 3 mps 744 mmHg 76%
22:00 +18°C° 0 mm 3 mps 744 mmHg 78%
23:00 +18°C° 0 mm 3 mps 744 mmHg 78%

Tomorrow, 30 July, Friday

Time Temperature Precipitation Wind Pressure Humidity
00:00 +17°C° 0 mm 3 mps 744 mmHg 78%
01:00 +16°C° 0 mm 3 mps 744 mmHg 78%
02:00 +16°C° 0 mm 3 mps 744 mmHg 80%
03:00 +14°C° 0 mm 3 mps 744 mmHg 82%
04:00 +13°C° 0 mm 3 mps 744 mmHg 84%
05:00 +16°C° 0 mm 3 mps 744 mmHg 77%
06:00 +18°C° 0 mm 4 mps 744 mmHg 70%
07:00 +19°C° 0 mm 4 mps 744 mmHg 63%
08:00 +20°C° 0 mm 5 mps 744 mmHg 57%
09:00 +22°C° 0 mm 5 mps 744 mmHg 52%
10:00 +23°C° 0 mm 6 mps 744 mmHg 46%
11:00 +23°C° 0 mm 6 mps 744 mmHg 44%
12:00 +24°C° 0 mm 7 mps 743 mmHg 42%
13:00 +24°C° 0 mm 7 mps 743 mmHg 40%
14:00 +24°C° 0 mm 7 mps 743 mmHg 42%
15:00 +24°C° 0 mm 6 mps 743 mmHg 44%
16:00 +24°C° 0 mm 6 mps 742 mmHg 46%
17:00 +23°C° 0 mm 5 mps 742 mmHg 51%
18:00 +22°C° 0 mm 4 mps 742 mmHg 55%
19:00 +20°C° 0 mm 4 mps 742 mmHg 60%
20:00 +19°C° 0 mm 3 mps 742 mmHg 64%
21:00 +18°C° 0 mm 3 mps 742 mmHg 67%
22:00 +17°C° 0 mm 3 mps 742 mmHg 71%
23:00 +16°C° 0 mm 3 mps 742 mmHg 71%

Day after tomorrow, 31 July, Saturday

Time Temperature Precipitation Wind Pressure Humidity
00:00 +16°C° 0 mm 3 mps 742 mmHg 70%
01:00 +14°C° 0 mm 3 mps 743 mmHg 70%
02:00 +14°C° 0 mm 3 mps 743 mmHg 70%
03:00 +15°C° 0 mm 2 mps 743 mmHg 70%
04:00 +14°C° 0 mm 2 mps 743 mmHg 70%
05:00 +16°C° 0 mm 3 mps 743 mmHg 67%
06:00 +17°C° 0 mm 3 mps 743 mmHg 64%
07:00 +19°C° 0 mm 3 mps 743 mmHg 61%
08:00 +21°C° 0 mm 3 mps 743 mmHg 57%
09:00 +24°C° 0 mm 3 mps 743 mmHg 53%
10:00 +25°C° 0 mm 3 mps 743 mmHg 49%
11:00 +26°C° 0 mm 3 mps 743 mmHg 47%
12:00 +27°C° 0 mm 3 mps 743 mmHg 45%
13:00 +28°C° 0 mm 3 mps 743 mmHg 43%
14:00 +27°C° 0 mm 3 mps 742 mmHg 46%
15:00 +27°C° 0 mm 2 mps 742 mmHg 49%
16:00 +26°C° 0 mm 2 mps 742 mmHg 52%
17:00 +25°C° 0.3 mm 2 mps 741 mmHg 60%
18:00 +23°C° 0.3 mm 2 mps 741 mmHg 68%
19:00 +21°C° 0.3 mm 2 mps 741 mmHg 76%
20:00 +20°C° 0.3 mm 2 mps 741 mmHg 80%
21:00 +19°C° 0.3 mm 2 mps 741 mmHg 85%
22:00 +19°C° 0.3 mm 3 mps 742 mmHg 89%
23:00 +18°C° 0 mm 3 mps 742 mmHg 88%

1 August, Sunday

Time Temperature Precipitation Wind Pressure Humidity
00:00 +17°C° 0 mm 3 mps 742 mmHg 88%
01:00 +16°C° 0 mm 3 mps 742 mmHg 88%
02:00 +14°C° 0 mm 3 mps 742 mmHg 87%
03:00 +14°C° 0 mm 3 mps 742 mmHg 86%
04:00 +13°C° 0 mm 3 mps 742 mmHg 86%
05:00 +16°C° 0 mm 3 mps 743 mmHg 80%
06:00 +17°C° 0 mm 4 mps 743 mmHg 74%
07:00 +19°C° 0 mm 4 mps 743 mmHg 68%
08:00 +20°C° 0 mm 4 mps 743 mmHg 63%
09:00 +22°C° 0 mm 4 mps 743 mmHg 57%
10:00 +23°C° 0 mm 4 mps 743 mmHg 51%
11:00 +23°C° 0 mm 4 mps 743 mmHg 50%
12:00 +25°C° 0 mm 4 mps 743 mmHg 49%
13:00 +26°C° 0 mm 4 mps 743 mmHg 47%
14:00 +23°C° 0.1 mm 4 mps 744 mmHg 57%
15:00 +21°C° 0.1 mm 4 mps 744 mmHg 66%
16:00 +19°C° 0.1 mm 4 mps 744 mmHg 75%
17:00 +18°C° 0.5 mm 3 mps 743 mmHg 80%
18:00 +17°C° 0.5 mm 2 mps 743 mmHg 84%
19:00 +16°C° 0.5 mm 1 mps 743 mmHg 89%
20:00 +15°C° 0.5 mm 1 mps 743 mmHg 90%
21:00 +15°C° 0.5 mm 1 mps 743 mmHg 91%
22:00 +14°C° 0.5 mm 1 mps 743 mmHg 92%
23:00 +15°C° 0.1 mm 1 mps 743 mmHg 92%

2 August, Monday

Time Temperature Precipitation Wind Pressure Humidity
00:00 +15°C° 0.1 mm 1 mps 743 mmHg 92%
01:00 +15°C° 0.1 mm 1 mps 742 mmHg 92%
02:00 +15°C° 0.1 mm 1 mps 742 mmHg 93%
03:00 +15°C° 0.1 mm 1 mps 742 mmHg 94%
04:00 +15°C° 0.1 mm 2 mps 742 mmHg 94%
05:00 +15°C° 0.9 mm 2 mps 742 mmHg 95%
06:00 +15°C° 0.9 mm 2 mps 742 mmHg 95%
07:00 +15°C° 0.9 mm 2 mps 742 mmHg 96%
08:00 +16°C° 0.5 mm 2 mps 742 mmHg 93%
09:00 +16°C° 0.5 mm 2 mps 743 mmHg 90%
10:00 +17°C° 0.5 mm 2 mps 743 mmHg 87%
11:00 +19°C° 0.2 mm 3 mps 743 mmHg 78%
12:00 +20°C° 0.2 mm 3 mps 743 mmHg 69%
13:00 +22°C° 0.2 mm 4 mps 743 mmHg 60%
14:00 +21°C° 0.2 mm 4 mps 743 mmHg 62%
15:00 +21°C° 0.2 mm 4 mps 743 mmHg 65%
16:00 +20°C° 0.2 mm 4 mps 743 mmHg 68%
17:00 +19°C° 0.4 mm 4 mps 743 mmHg 75%
18:00 +18°C° 0.4 mm 4 mps 743 mmHg 82%
19:00 +17°C° 0.4 mm 4 mps 743 mmHg 89%
20:00 +16°C° 0.1 mm 3 mps 744 mmHg 90%
21:00 +14°C° 0.1 mm 3 mps 744 mmHg 91%
22:00 +15°C° 0.1 mm 2 mps 744 mmHg 92%
23:00 +13°C° 0 mm 3 mps 744 mmHg 92%

3 August, Tuesday

Time Temperature Precipitation Wind Pressure Humidity
00:00 +12°C° 0 mm 3 mps 745 mmHg 92%
01:00 +12°C° 0 mm 3 mps 745 mmHg 92%
02:00 +11°C° 0 mm 3 mps 745 mmHg 91%
03:00 +11°C° 0 mm 4 mps 745 mmHg 91%
04:00 +11°C° 0 mm 4 mps 745 mmHg 91%
05:00 +12°C° 0 mm 4 mps 745 mmHg 87%
06:00 +13°C° 0 mm 5 mps 745 mmHg 83%
07:00 +15°C° 0 mm 5 mps 746 mmHg 79%
08:00 +16°C° 0 mm 6 mps 746 mmHg 72%
09:00 +19°C° 0 mm 6 mps 746 mmHg 65%
10:00 +21°C° 0 mm 6 mps 747 mmHg 58%
11:00 +21°C° 0 mm 5 mps 747 mmHg 57%
12:00 +21°C° 0 mm 5 mps 747 mmHg 55%
13:00 +22°C° 0 mm 5 mps 747 mmHg 53%
14:00 +21°C° 0 mm 5 mps 747 mmHg 55%
15:00 +21°C° 0 mm 4 mps 747 mmHg 57%
16:00 +21°C° 0 mm 4 mps 747 mmHg 58%
17:00 +20°C° 0 mm 3 mps 748 mmHg 63%
18:00 +18°C° 0 mm 3 mps 748 mmHg 69%
19:00 +17°C° 0 mm 2 mps 748 mmHg 74%
20:00 +16°C° 0 mm 2 mps 748 mmHg 77%
21:00 +15°C° 0 mm 2 mps 749 mmHg 81%
22:00 +14°C° 0 mm 1 mps 749 mmHg 84%
23:00 +14°C° 0 mm 1 mps 749 mmHg 86%
Show more